www.pogodaiklimat.ru

Погода и климат >> Архив погоды >> Оман >> Ibra


ПОГОДА в Ibra

  • Прогноз погоды в Ibra
  • Монитор погоды в Ibra
  • Климат города

АРХИВ ПОГОДЫ в Ibra

Время (UTC), дата Ветер
(напр.,м/с)
 
Видим.   Явления Облачность Т
(С)
Тd
(С)
f
(%)
Тe
(С)
Тes
(С)
Комфортность P
(гПа)
Po
(гПа)
Тmin
(С)
Tmax
(С)
R
(мм)
R24
(мм)
S
(см)
03 19.05 ЮВ 1 н/о н/о +27.8 +20.6 65 +35 +35 очень
душно
1007.9 952.9
06 19.05 В 2 н/о н/о +32.8 +17.9 41 +37 +37 очень
душно
1007.5 953.3 +27.0
09 19.05 ЮЗ 4 н/о н/о +37.5 +11.6 21 +37 +37 очень
жарко
1004.5 951.1
12 19.05 СЗ 2 9000 м мгла 5/5 750 м
[Sc diur, vesp]
+39.7 +7.3 14 +37 +41 очень
жарко
1008.7 948.7
15 19.05 ЮЗ 6 н/о н/о +37.9 +8.2 16 +36 +36 очень
жарко
1002.2 949.0
18 19.05 З 2 9000 м мгла ясно +35.7 +9.3 20 +34 +34 очень
жарко
1010.5 950.5 +40.6
21 19.05 ЮВ 3 н/о н/о +30.3 +19.6 53 +36 +36 очень
душно
1005.5 951.0
00 20.05 ЮВ 2 н/о н/о +28.6 +20.5 62 +35 +35 очень
душно
1005.8 951.0
03 20.05 Ю 2 н/о н/о +28.7 +20.3 60 +35 +35 очень
душно
1007.1 952.2
06 20.05 Ю 2 9000 м мгла ясно +32.8 +18.6 43 +38 +54 опасность
солнечного
удара
1007.9 952.3 +27.7
09 20.05 ЮЗ 3 н/о н/о +38.0 +15.0 26 +39 +39 очень
душно
1002.6 949.4
12 20.05 Ю 5 9000 м мгла 4/4 750 м
[Cu hum]
+39.8 +9.3 16 +38 +41 очень
жарко
1000.7 946.5
15 20.05 ЮЗ 5 9000 м мгла 4/4 750 м
[Sc]
+38.3 +8.1 16 +36 +36 очень
жарко
1001.0 946.5
18 20.05 Ю 5 9000 м мгла ясно +34.3 +16.7 35 +37 +37 очень
душно
1003.2 948.1 +40.7
21 20.05 ЮВ 3 н/о н/о +30.1 +19.9 54 +36 +36 очень
душно
1002.5 948.1
00 21.05 ЮВ 3 н/о н/о +28.5 +19.2 57 +34 +34 очень
душно
1002.2 947.6
03 21.05 ЮВ 3 н/о н/о +27.9 +19.5 60 +34 +34 очень
душно
1003.8 949.0
06 21.05 ЮВ 2 9000 м мгла ясно +32.7 +15.7 36 +35 +52 опасность
солнечного
удара
1005.2 949.7 +27.6
09 21.05 ЮЗ 4 н/о н/о +37.9 +10.9 20 +37 +37 очень
жарко
1000.7 947.5
12 21.05 Ю 5 н/о н/о +40.4 +6.0 12 +38 +38 очень
жарко
997.8 945.2
15 21.05 ЮЗ 4 н/о н/о +38.9 +4.3 12 +36 +36 очень
жарко
998.3 945.4
18 21.05 ЮВ 4 9000 м мгла ясно +32.8 +11.8 28 +39 +39 очень
душно
1003.4 948.1 +41.2
21 21.05 ЮВ 2 н/о н/о +29.4 +20.0 57 +36 +36 очень
душно
1002.7 948.2
00 22.05 штиль 0 н/о н/о +27.8 +20.1 63 +34 +34 очень
душно
1003.0 948.2
03 22.05 ЮВ 1 н/о н/о +28.8 +19.7 58 +35 +35 очень
душно
1004.7 950.0
06 22.05 СВ 2 н/о н/о +34.0 +15.2 32 +36 +36 душно 1004.7 950.8 +27.0
09 22.05 Ю 4 10 км ясно +38.1 +12.0 21 +38 +51 опасность
солнечного
удара
1004.1 949.5
12 22.05 ЮЗ 4 н/о н/о +38.9 +12.0 20 +38 +38 очень
жарко
1000.5 947.6
15 22.05 ЮЗ 5 9000 м мгла 3/3 750 м
[St]
+37.5 +12.9 23 +37 +37 очень
жарко
1002.9 948.3
18 22.05 Ю 6 9000 м мгла ясно +33.6 +13.2 29 +34 +34 очень
жарко
1006.0 950.5 +39.9
21 22.05 ЮВ 4 н/о н/о +30.2 +17.6 47 +34 +34 очень
душно
1005.5 951.0
00 23.05 ЮВ 4 н/о н/о +27.5 +17.2 53 +31 +31 душно 1006.4 951.3
03 23.05 ЮВ 1 н/о н/о +28.2 +16.1 48 +31 +31 душно 1008.0 952.9
06 23.05 СВ 2 9000 м мгла ясно +33.1 +14.7 33 +35 +53 опасность
солнечного
удара
1008.8 953.1 +26.9
09 23.05 Ю 3 9000 м мгла ясно +37.2 +12.7 23 +37 +56 опасность
солнечного
удара
1011.2 951.2
12 23.05 Ю 5 8000 м мгла 3/3 750 м
[Sc diur, vesp]
+39.3 +10.7 18 +38 +41 очень
жарко
1009.3 948.9
15 23.05 Ю 6 8000 м мгла 3/3 750 м
[Sc]
+37.0 +11.8 22 +36 +36 очень
жарко
1009.5 949.5
18 23.05 Ю 5 8000 м мгла ясно +34.5 +15.0 31 +36 +36 душно 1011.2 951.2 +39.8
21 23.05 ЮВ 3 н/о н/о +30.0 +22.8 65 +40 +40 очень
душно
1005.7 951.3
00 24.05 Ю 2 н/о н/о +28.4 +22.9 72 +38 +38 очень
душно
1005.9 951.1
03 24.05 ЮВ 1 н/о н/о +28.7 +22.9 71 +38 +38 очень
душно
1008.0 953.1
06 24.05 СЗ 2 9000 м мгла 3/1 750 м
[Sc diur, vesp Ac trans]
+32.4 +22.2 55 +41 +56 опасность
перегрева
1008.8 953.2 +27.3
09 24.05 В 3 9000 м мгла 4/4 750 м
[Sc diur, vesp]
+37.7 +15.5 27 1004.7 950.6
12 24.05 ЮВ 3 н/о н/о +40.1 +8.2 15 +38 +38 очень
жарко
1000.8 947.9
15 24.05 Ю 4 9000 м мгла 3/3 750 м
[Sc]
+38.5 +8.3 16 +36 +36 очень
жарко
1002.2 947.7
18 24.05 Ю 2 н/о н/о +35.6 +9.6 21 +34 +34 очень
жарко
1003.7 950.0 +40.6
21 24.05 Ю 4 н/о н/о +31.2 +20.3 52 +38 +38 очень
душно
1004.7 950.4
00 25.05 В 3 н/о н/о +28.3 +21.7 67 +36 +36 очень
душно
1005.5 950.7
03 25.05 Ю 2 н/о н/о +28.3 +23.0 73 +38 +38 очень
душно
1006.6 951.8
06 25.05 З 2 10 км ясно +33.1 +21.6 51 +41 +60 опасность
перегрева
1007.4 952.0 +27.3
09 25.05 Ю 2 9000 м мгла 3/3 750 м
[Sc diur, vesp]
+37.5 +19.0 34 +42 +57 опасность
перегрева
1004.0 949.5
12 25.05 ЮЗ 3 н/о н/о +40.9 +11.7 18 +40 +40 очень
жарко
999.8 947.2
15 25.05 ЮЗ 5 9000 м мгла 3/3 750 м
[Sc diur, vesp]
+39.9 +8.4 15 +38 +38 очень
жарко
1001.6 947.4
18 25.05 ЮЗ 2 9000 м мгла 3/3 750 м
[Sc diur, vesp]
+37.3 +12.1 22 +37 +37 очень
жарко
1003.8 949.1 +41.8
21 25.05 Ю 5 н/о н/о +31.8 +20.2 50 +38 +38 очень
душно
1003.5 949.4
00 26.05 Ю 4 н/о н/о +30.4 +19.7 53 +37 +37 очень
душно
1004.0 949.6

 

Местоположение метеостанции Ibra (Оман): широта 22.73 долгота 58.50 высота над уровнем моря 469 м.

В архиве по умолчанию представлена погода в Ibra за последнюю неделю. Архивные данные за месяц целиком и за предыдущие месяцы, начиная с января 2011 года, Вы можете получить, выбрав интересующий диапазон дат из раскрывающегося списка и нажав кнопку "Ввод!".

Внимание! Время в таблицах - всемирное. Для получения местного времени необходимо прибавить поправку, которая в Ibra равна 4 ч.

Смотрите также архив погоды в соседних городах и на ближайших метеорологических станциях:

Погода в Al Mudhaibi (Оман) (45 км)
Погода в Bidiya (Оман) (47 км)
Погода в Al Amerat (Оман) (86 км)
Погода в Samail (Оман) (86 км)
Погода в Qalhat (Оман) (93 км)
Погода в Saiq (Оман) (97 км)
Погода в Seeb (Оман) (97 км)
Погода в Mina Sultan Qaboos (Оман) (99 км)
Погода в Nizwa (Оман) (100 км)
Погода в Sur (Оман) (102 км)

Пояснения к столбцам:

Ветер - указаны скорость ветра в м/с - средняя за 10 мин, порывы в срок и между сроками (в фигурных скобках) и направление, откуда дует ветер: С - северный, СВ - северо-восточный, В - восточный, ЮВ - юго-восточный, Ю - южный, ЮЗ - юго-западный, З - западный, СЗ - северо-западный.
Видимость - горизонтальная дальность видимости в метрах или километрах. При видимости от 1 до 10 км при отсутствии осадков обычно наблюдается дымка, при ухудшении видимости до 1 км и менее - туман. В сухую погоду видимость может ухудшаться дымом, пылью или мглою.
Явления - указаны атмосферные явления, наблюдавшиеся в срок или в последний час перед сроком; фигурными скобками обозначены явления, наблюдавшиеся между сроками (за 1-3 часа до срока); квадратными скобками обозначены град или гололедные отложения с указанием их диаметра в мм.
Облачность - указаны через наклонную черту общая и нижняя облачность в баллах и высота нижней границы облаков в метрах; квадратными скобками обозначены формы облаков: Ci - перистые, Cs - перисто-слоистые, Cc - перисто-кучевые, Ac - высококучевые, As - высокослоистые, Sc - слоисто-кучевые, Ns - слоисто-дождевые, Cu - кучевые, Cb - кучево-дождевые. Подробнее классификацию облаков см. в Атласе облаков (PDF).
T - Температура воздуха - температура, измеренная на высоте 2 м над землей.
Td - Температура точки росы - температура, при понижении до которой содержащийся в воздухе водяной пар достигнет насыщения.
f - Относительная влажность воздуха - влажноcть воздуха, измеренная на высоте 2 м над землей.
Te - Эффективная температура - температура, которую ощущает одетый по сезону человек в тени. Характеристика душности погоды. При расчете учитывается влияние влажности воздуха и скорости ветра на теплоощущения человека.
Tes - Эффективная температура на солнце - температура, которую ощущает человек, с поправкой на солнечный нагрев. Характеристика знойности погоды. Зависит от высоты солнца над горизонтом, облачности и скорости ветра. Ночью, в пасмурную погоду, а также при ветре 12 м/с и более поправка равна нулю.
P - Атмосферное давление - приведенное к уровню моря атмосферное давление.
Po - Атмосферное давление - измеренное на уровне метеостанции атмосферное давление.
Tmin - Минимальная температура - минимум температуры воздуха на высоте 2 м над землей.
Tmax - Максимальная температура - максимум температуры воздуха на высоте 2 м над землей.
R - Количество осадков - Количество выпавших осадков за период времени, мм. При наведении курсора мыши на число - период времени, за который выпало указанное количество осадков.
R24 - Количество осадков - Количество выпавших осадков за 24 часа, мм.
S - Снежный покров - Высота снежного покрова, см. При наведении курсора мыши на число - состояние снежного покрова и степень покрытия местности в баллах.